Regional Weather Roundup
Issued by NWS

Home | Current Version | Previous Version | Text Only | Print | Product List | Glossary Off
Versions: 1 2 3 4 5 6 7 8 9 10 11 12 13 14 15 16 17 18 19 20 21 22 23 24 25 26 27 28 29 30 31 32 33 34 35 36 37 38 39 40 41 42 43 44 45 46 47 48 49 50

000
ASUS43 KIND 240059
RWRIN

WEATHER ROUNDUP FOR INDIANA
NATIONAL WEATHER SERVICE INDIANAPOLIS IN
800 PM EST THU NOV 23 2017

NOTE: "FAIR" INDICATES FEW OR NO CLOUDS BELOW 12,000 FEET WITH NO
SIGNIFICANT WEATHER AND/OR OBSTRUCTIONS TO VISIBILITY.

* - STATION DOES NOT REPORT WEATHER SUCH AS PRECIPITATION OR FOG.

+ - STATION NOT QUALITY CONTROLLED BY THE NATIONAL WEATHER SERVICE.
    USE DATA WITH CAUTION...ESPECIALLY DEWPOINT AND RELATIVE
    HUMIDITY OBSERVATIONS.

INZ001>003-010>013-019-020-240200-
NORTHWEST INDIANA

CITY           SKY/WX    TMP DP  RH WIND       PRES   REMARKS
GARY /AIRPORT/ CLEAR     37  28  70 S3        29.95S
KNOX *+        CLEAR     34  27  75 S3        29.97R
LA PORTE +     CLEAR     36  26  69 CALM      29.96R
MICHIGAN CITY+ CLEAR     36  27  69 S3        29.96F
MONTICELLO +   CLEAR     37  23  56 S6        29.98S WCI  32
RENSSELAER +   CLEAR     36  23  60 S5        29.97F WCI  32

$$

LMZ046-743>745-240200-
SOUTHERN LAKE MICHIGAN

STATION/POSITION TIME  TEMP    WIND        PRES    WAVE
                       AIR SEA DIR/SP/G            HT
                 (UTC) (F)     (DEG/KT/KT) (MB)    (FT)
BURNS HARBOR     0040   42     190/  6/  8 1014.9S
MICHIGAN CITY    0030   42     170/  8/  9   N/A

$$

INZ004-005-014>016-021>024-240200-
NORTH CENTRAL INDIANA

CITY           SKY/WX    TMP DP  RH WIND       PRES   REMARKS
GOSHEN         CLEAR     34  22  61 S5        29.97R WCI  30
PERU/GRISSOM   CLEAR     30  24  78 SW9       29.98R WCI  22
SOUTH BEND     CLEAR     35  25  66 S6        29.97R WCI  30
WARSAW +       CLEAR     36  25  64 CALM      29.97S

$$

INZ006>009-017-018-025>027-240200-
NORTHEAST INDIANA

CITY           SKY/WX    TMP DP  RH WIND       PRES   REMARKS
AUBURN +       CLEAR     32  23  69 CALM      29.99R
FORT WAYNE     CLEAR     33  26  75 W3        29.99R
KENDALLVILLE + CLEAR     33  23  66 SW3       29.98R

$$

INZ028-029-035-036-043>045-051>053-240200-
WEST CENTRAL INDIANA

CITY           SKY/WX    TMP DP  RH WIND       PRES   REMARKS
CRAWFORDSVL +  CLEAR     32  23  70 MISG        N/A
GREENCASTLE +  CLEAR     34  21  60 CALM      30.02R
LAFAYETTE      CLEAR     37  25  61 S3        30.00R
TERRE HAUTE    CLEAR     32  23  69 CALM      30.02R

$$

INZ030>032-037>040-046>048-054>057-064-065-240200-
CENTRAL INDIANA

CITY           SKY/WX    TMP DP  RH WIND       PRES   REMARKS
COLUMBUS       CLEAR     36  19  51 S3        30.02R
FRANKFORT +    MOCLDY    34  25  70 SW5       30.01R WCI  30
GREENWOOD *+   CLEAR     38  24  57 S3        30.01R
INDIANAPOLIS   CLEAR     35  21  56 SW7       30.01R WCI  29
-EAGLE CREEK   CLEAR     39  19  44 SW3       30.00R
KOKOMO +       CLEAR     35  23  61 SW8       30.00R WCI  29
MT COMFORT *+  CLEAR     34  28  80 CALM      30.01R
SHELBYVILLE    CLEAR     38  24  57 S6        30.00R WCI  33

$$

INZ033-034-041-042-049-050-058-059-240200-
EAST CENTRAL INDIANA

CITY           SKY/WX    TMP DP  RH WIND       PRES   REMARKS
MUNCIE         CLEAR     38  24  57 SW7       29.99R WCI  33
RICHMOND +     CLEAR     32  28  86 S9        30.00R WCI  24

$$

INZ060-061-067>069-081>083-085>088-240200-
SOUTHWEST INDIANA

CITY           SKY/WX    TMP DP  RH WIND       PRES   REMARKS
EVANSVILLE     CLEAR     42  23  46 CALM      30.03R
HUNTINGBURG +  CLEAR     39  25  57 S3        30.03R

$$

INZ062-063-066-070>080-084-089>092-240200-
SOUTH CENTRAL AND SOUTHEAST INDIANA

CITY           SKY/WX    TMP DP  RH WIND       PRES   REMARKS
BLOOMINGTON    CLEAR     32  22  66 CALM      30.01R
MADISON *+     CLEAR     34  25  69 CALM      30.04S
SEYMOUR +      CLEAR     36  25  64 S3        30.02R

$$





USA.gov is the U.S. government's official web portal to all federal, state and local government web resources and services.